Погода в Киаме

Австралия     34°40′05″S   150°51′08″E
темп.,
°C
ветер,
м/с
пор.,
м/с
влажн.,
%
обл.,
%
осадки,
мм/ч
давл.,
гПа
погр.,
м
19 апреля, пн
пн1901:00+11зсз22860 0.0 101948
04:00+10зсз22785 0.0 101849
07:00+10зсз22675 0.0 101951
10:00+19всв02385 0.0 1018740
13:00+22в23321 0.0 10141286
16:00+21св23462 0.0 1013357
19:00+14сз226654 0.0 101642
22:00+12сз236422 0.0 101655
20 апреля, вт
вт2001:00+11сз35680 0.0 1015129
04:00+11сз35690 0.0 1014143
07:00+11зсз35720 0.0 1015142
10:00+19з48414 0.0 10141224
13:00+22з363499 0.0 10111725
16:00+20зсз3742100 0.0 10101095
19:00+15сз395593 0.0 1012257
22:00+14сз2457100 0.0 101284
21 апреля, ср
ср2101:00+13зсз2357100 0.0 101064
04:00+12сз2273100 0.3 101035
07:00+13зсз376574 0.0 1011152
10:00+19з35418 0.0 10111295
13:00+19юв444630 0.0 10101529
16:00+15ю3583100 0.8 1011322
19:00+13юз129152 1.3 101392
22:00+12з229420 1.4 101487
22 апреля, чт
чт2201:00+10зсз349086 0.1 101390
04:00+8з23864 0.1 101371
07:00+8зсз34800 0.0 101395
10:00+16з364114 0.0 10121055
13:00+19з572865 0.0 10091912
16:00+18зюз363679 0.0 10101531
19:00+12з23580 0.0 1013109
22:00+10зсз23600 0.0 101576
23 апреля, пт
пт2301:00+9зсз23670 0.0 101570
04:00+8зсз23700 0.0 101568
07:00+9зсз23730 0.0 101773
10:00+17зюз35450 0.0 10171058
13:00+19ююв34380 0.0 10151635
16:00+17вюв32562 0.0 1016773
19:00+12сз117711 0.0 1019118
22:00+10зсз22836 0.0 102144